When you browse on this site, cookies collect data to enhance your experience and personalize the content and advertising you see.
Visit our Privacy Policy to learn more. By continuing to use the site, you agree to this use of cookies and data.
  • In Lithuania
  • List of Countries
  • For 7 days
  • Water Temperature
  • Satellite Maps
  • Weather Map
  • Weather Widgets
  • user-avatar
    Login

    Hourly Weather Ischgl

    Today, 19 June, Wednesday

    Time Temperature Precipitation Wind Pressure Humidity
    00:00 +7°C° 0.4 mm 0 mps 575 mmHg 90%
    01:00 +7°C° 0.4 mm 0 mps 575 mmHg 90%
    02:00 +7°C° 0.2 mm 0 mps 575 mmHg 89%
    03:00 +7°C° 0.2 mm 0 mps 575 mmHg 87%
    04:00 +8°C° 0.2 mm 1 mps 575 mmHg 85%
    05:00 +9°C° 0 mm 1 mps 575 mmHg 80%
    06:00 +10°C° 0 mm 1 mps 576 mmHg 75%
    07:00 +11°C° 0 mm 1 mps 576 mmHg 69%
    08:00 +13°C° 0.1 mm 1 mps 577 mmHg 62%
    09:00 +14°C° 0.1 mm 1 mps 577 mmHg 55%
    10:00 +14°C° 0.1 mm 0 mps 578 mmHg 48%
    11:00 +16°C° 0.1 mm 1 mps 578 mmHg 46%
    12:00 +16°C° 0.1 mm 1 mps 578 mmHg 43%
    13:00 +18°C° 0.1 mm 1 mps 578 mmHg 40%
    14:00 +18°C° 0.2 mm 1 mps 578 mmHg 42%
    15:00 +16°C° 0.2 mm 2 mps 578 mmHg 44%
    16:00 +16°C° 0.2 mm 2 mps 577 mmHg 46%
    17:00 +15°C° 0.9 mm 2 mps 577 mmHg 56%
    18:00 +13°C° 0.9 mm 1 mps 576 mmHg 66%
    19:00 +12°C° 0.9 mm 1 mps 576 mmHg 76%
    20:00 +11°C° 1.6 mm 1 mps 576 mmHg 81%
    21:00 +10°C° 1.6 mm 1 mps 575 mmHg 85%
    22:00 +8°C° 1.6 mm 1 mps 575 mmHg 90%
    23:00 +8°C° 0 mm 1 mps 574 mmHg 88%

    Tomorrow, 20 June, Thursday

    Time Temperature Precipitation Wind Pressure Humidity
    00:00 +7°C° 0 mm 1 mps 574 mmHg 87%
    01:00 +6°C° 0 mm 1 mps 574 mmHg 85%
    02:00 +6°C° 0 mm 1 mps 574 mmHg 85%
    03:00 +6°C° 0 mm 1 mps 573 mmHg 84%
    04:00 +6°C° 0 mm 1 mps 573 mmHg 84%
    05:00 +6°C° 0 mm 0 mps 574 mmHg 79%
    06:00 +8°C° 0 mm 0 mps 575 mmHg 75%
    07:00 +10°C° 0 mm 0 mps 576 mmHg 70%
    08:00 +12°C° 0.6 mm 1 mps 576 mmHg 69%
    09:00 +12°C° 0.6 mm 1 mps 577 mmHg 68%
    10:00 +13°C° 0.6 mm 1 mps 577 mmHg 67%
    11:00 +13°C° 1.6 mm 1 mps 577 mmHg 70%
    12:00 +13°C° 1.6 mm 1 mps 577 mmHg 73%
    13:00 +13°C° 1.6 mm 2 mps 577 mmHg 76%
    14:00 +12°C° 1.5 mm 2 mps 577 mmHg 79%
    15:00 +10°C° 1.5 mm 2 mps 576 mmHg 81%
    16:00 +10°C° 1.5 mm 2 mps 576 mmHg 84%
    17:00 +9°C° 0.6 mm 2 mps 576 mmHg 86%
    18:00 +9°C° 0.6 mm 2 mps 576 mmHg 89%
    19:00 +8°C° 0.6 mm 2 mps 575 mmHg 91%
    20:00 +8°C° 0.4 mm 1 mps 575 mmHg 92%
    21:00 +7°C° 0.4 mm 1 mps 575 mmHg 92%
    22:00 +6°C° 0.4 mm 0 mps 575 mmHg 93%
    23:00 +6°C° 0.1 mm 0 mps 575 mmHg 93%

    Day after tomorrow, 21 June, Friday

    Time Temperature Precipitation Wind Pressure Humidity
    00:00 +5°C° 0.1 mm 0 mps 575 mmHg 92%
    01:00 +5°C° 0.1 mm 0 mps 575 mmHg 92%
    02:00 +5°C° 0.1 mm 0 mps 575 mmHg 90%
    03:00 +6°C° 0.1 mm 0 mps 575 mmHg 88%
    04:00 +6°C° 0.1 mm 0 mps 575 mmHg 87%
    05:00 +7°C° 0 mm 0 mps 575 mmHg 82%
    06:00 +8°C° 0 mm 1 mps 576 mmHg 77%
    07:00 +9°C° 0 mm 1 mps 576 mmHg 72%
    08:00 +10°C° 0 mm 1 mps 577 mmHg 66%
    09:00 +11°C° 0 mm 1 mps 578 mmHg 60%
    10:00 +12°C° 0 mm 0 mps 578 mmHg 54%
    11:00 +13°C° 0.1 mm 1 mps 578 mmHg 52%
    12:00 +14°C° 0.1 mm 1 mps 579 mmHg 51%
    13:00 +15°C° 0.1 mm 1 mps 579 mmHg 49%
    14:00 +14°C° 1.1 mm 1 mps 578 mmHg 57%
    15:00 +14°C° 1.1 mm 2 mps 578 mmHg 64%
    16:00 +13°C° 1.1 mm 2 mps 577 mmHg 72%
    17:00 +12°C° 1.8 mm 2 mps 577 mmHg 79%
    18:00 +10°C° 1.8 mm 2 mps 576 mmHg 86%
    19:00 +9°C° 1.8 mm 1 mps 576 mmHg 93%
    20:00 +9°C° 1.2 mm 1 mps 576 mmHg 93%
    21:00 +8°C° 1.2 mm 1 mps 576 mmHg 94%
    22:00 +8°C° 1.2 mm 1 mps 576 mmHg 95%
    23:00 +8°C° 0.2 mm 1 mps 575 mmHg 95%

    22 June, Saturday

    Time Temperature Precipitation Wind Pressure Humidity
    00:00 +7°C° 0.2 mm 1 mps 575 mmHg 95%
    01:00 +7°C° 0.2 mm 1 mps 575 mmHg 96%
    02:00 +7°C° 1 mm 1 mps 575 mmHg 95%
    03:00 +7°C° 1 mm 1 mps 575 mmHg 94%
    04:00 +7°C° 1 mm 1 mps 575 mmHg 94%
    05:00 +8°C° 0.2 mm 1 mps 575 mmHg 91%
    06:00 +7°C° 0.2 mm 0 mps 575 mmHg 88%
    07:00 +8°C° 0.2 mm 0 mps 576 mmHg 86%
    08:00 +10°C° 1.1 mm 1 mps 576 mmHg 83%
    09:00 +10°C° 1.1 mm 1 mps 576 mmHg 81%
    10:00 +11°C° 1.1 mm 1 mps 577 mmHg 78%
    11:00 +12°C° 1.7 mm 1 mps 577 mmHg 78%
    12:00 +12°C° 1.7 mm 1 mps 577 mmHg 77%
    13:00 +13°C° 1.7 mm 1 mps 577 mmHg 76%
    14:00 +12°C° 1.7 mm 1 mps 577 mmHg 77%
    15:00 +12°C° 1.7 mm 1 mps 577 mmHg 77%
    16:00 +12°C° 1.7 mm 2 mps 577 mmHg 77%
    17:00 +10°C° 1.1 mm 2 mps 576 mmHg 80%
    18:00 +9°C° 1.1 mm 2 mps 576 mmHg 83%
    19:00 +9°C° 1.1 mm 2 mps 576 mmHg 87%
    20:00 +9°C° 0.1 mm 1 mps 576 mmHg 89%
    21:00 +8°C° 0.1 mm 1 mps 576 mmHg 92%
    22:00 +7°C° 0.1 mm 1 mps 576 mmHg 95%
    23:00 +5°C° 0 mm 0 mps 575 mmHg 95%

    23 June, Sunday

    Time Temperature Precipitation Wind Pressure Humidity
    00:00 +5°C° 0 mm 0 mps 575 mmHg 94%
    01:00 +4°C° 0 mm 0 mps 575 mmHg 94%
    02:00 +4°C° 0 mm 0 mps 575 mmHg 93%
    03:00 +3°C° 0 mm 0 mps 574 mmHg 93%
    04:00 +3°C° 0 mm 0 mps 574 mmHg 92%
    05:00 +5°C° 0 mm 0 mps 575 mmHg 87%
    06:00 +6°C° 0 mm 0 mps 576 mmHg 81%
    07:00 +8°C° 0 mm 0 mps 577 mmHg 76%
    08:00 +10°C° 0 mm 0 mps 578 mmHg 68%
    09:00 +12°C° 0 mm 0 mps 579 mmHg 60%
    10:00 +15°C° 0 mm 1 mps 580 mmHg 52%
    11:00 +16°C° 0 mm 1 mps 581 mmHg 47%
    12:00 +18°C° 0 mm 1 mps 581 mmHg 42%
    13:00 +19°C° 0 mm 1 mps 581 mmHg 37%
    14:00 +19°C° 0 mm 1 mps 581 mmHg 36%
    15:00 +18°C° 0 mm 2 mps 581 mmHg 36%
    16:00 +18°C° 0 mm 2 mps 581 mmHg 36%
    17:00 +16°C° 0 mm 2 mps 581 mmHg 46%
    18:00 +15°C° 0 mm 2 mps 581 mmHg 56%
    19:00 +14°C° 0 mm 2 mps 580 mmHg 67%
    20:00 +12°C° 0 mm 1 mps 579 mmHg 74%
    21:00 +10°C° 0 mm 1 mps 579 mmHg 82%
    22:00 +7°C° 0 mm 0 mps 578 mmHg 90%
    23:00 +7°C° 0 mm 0 mps 578 mmHg 89%

    24 June, Monday

    Time Temperature Precipitation Wind Pressure Humidity
    00:00 +7°C° 0 mm 0 mps 578 mmHg 88%
    01:00 +8°C° 0 mm 1 mps 578 mmHg 87%
    02:00 +7°C° 0 mm 1 mps 578 mmHg 86%
    03:00 +7°C° 0 mm 1 mps 578 mmHg 84%
    04:00 +7°C° 0 mm 1 mps 578 mmHg 82%
    05:00 +9°C° 0 mm 1 mps 579 mmHg 73%
    06:00 +12°C° 0 mm 1 mps 581 mmHg 63%
    07:00 +14°C° 0 mm 1 mps 582 mmHg 54%
    08:00 +16°C° 0 mm 1 mps 583 mmHg 46%
    09:00 +17°C° 0 mm 0 mps 584 mmHg 38%
    10:00 +19°C° 0 mm 0 mps 585 mmHg 30%
    11:00 +22°C° 0 mm 1 mps 585 mmHg 29%
    12:00 +22°C° 0 mm 1 mps 585 mmHg 28%
    13:00 +23°C° 0 mm 2 mps 586 mmHg 27%
    14:00 +23°C° 0 mm 1 mps 586 mmHg 27%
    15:00 +24°C° 0 mm 1 mps 586 mmHg 26%
    16:00 +24°C° 0 mm 1 mps 586 mmHg 26%
    17:00 +22°C° 0 mm 1 mps 585 mmHg 36%
    18:00 +21°C° 0 mm 1 mps 585 mmHg 46%
    19:00 +20°C° 0 mm 1 mps 584 mmHg 56%
    20:00 +16°C° 0 mm 0 mps 584 mmHg 59%
    21:00 +13°C° 0 mm 0 mps 583 mmHg 62%
    22:00 +11°C° 0 mm 0 mps 582 mmHg 64%
    23:00 +11°C° 0 mm 0 mps 582 mmHg 63%
    Show more